KE7JVX-3 Weather Reports


Display with metric or nautical units.
time (UTC)temp
F
wind
direction
speed
MPH
gust
MPH
rain 1hr
in
rain 24hr
in
rain mn
in
humidity
%
barometer
mb
20260904092909 55 262 16.0 21.0 0.00 0.05 0.05 78 1014.5
20260904091907 55 260 14.0 26.0 0.00 0.05 0.05 78 1014.6
20260904090907 55 265 15.0 24.0 0.00 0.05 0.05 78 1014.6
20260904085909 55 262 17.0 24.0 0.00 0.05 0.05 78 1014.5
20260904084907 55 268 17.0 26.0 0.00 0.05 0.05 78 1014.7
20260904083907 55 263 18.0 27.0 0.00 0.05 0.05 78 1014.8
20260904082907 55 261 17.0 25.0 0.00 0.05 0.05 78 1014.8
20260904081907 55 260 16.0 27.0 0.00 0.05 0.05 78 1014.9
20260904080908 55 266 17.0 27.0 0.00 0.05 0.05 78 1014.9
20260904075907 55 259 14.0 22.0 0.00 0.05 0.05 78 1015.2
20260904074907 55 262 15.0 22.0 0.05 0.05 0.05 77 1015.3
20260904073907 55 260 13.0 23.0 0.05 0.05 0.05 77 1015.3
20260904072907 55 262 12.0 21.0 0.05 0.05 0.05 77 1015.3
20260904071907 55 257 11.0 18.0 0.05 0.05 0.05 77 1015.4
20260904070907 55 256 13.0 20.0 0.05 0.05 0.05 77 1015.4
20260904065907 54 275 12.0 26.0 0.05 0.05 0.05 77 1015.4
20260904064907 54 268 13.0 21.0 0.00 0.00 0.00 77 1015.2
20260904063907 55 248 11.0 22.0 0.00 0.00 0.00 76 1015.3
20260904062907 55 249 13.0 19.0 0.00 0.00 0.00 76 1015.2
20260904061907 55 242 13.0 19.0 0.00 0.00 0.00 75 1015.1
20260904060907 55 241 10.0 17.0 0.00 0.00 0.00 74 1015.1
20260904055907 55 251 12.0 21.0 0.00 0.00 0.00 74 1015.1
20260904054907 55 249 11.0 17.0 0.00 0.00 0.00 73 1015.1
20260904053908 55 254 13.0 19.0 0.00 0.00 0.00 72 1015.2
20260904052908 56 248 11.0 16.0 0.00 0.00 0.00 68 1015.2
20260904051907 56 244 8.0 13.0 0.00 0.00 0.00 66 1015.3
20260904050907 57 246 7.0 12.0 0.00 0.00 0.00 64 1015.3
20260904045907 57 244 9.0 14.0 0.00 0.00 0.00 62 1015.2
20260904044907 57 236 6.0 9.0 0.00 0.00 0.00 63 1015.3
20260904043909 57 234 6.0 9.0 0.00 0.00 0.00 62 1015.3
20260904042907 56 232 5.0 9.0 0.00 0.00 0.00 69 1015.3
20260904041907 55 214 6.0 10.0 0.00 0.00 0.00 73 1015.4
20260904040908 56 228 4.0 9.0 0.00 0.00 0.00 71 1015.4
20260904035907 57 235 4.0 11.0 0.00 0.00 0.00 68 1015.4
20260904034907 57 230 6.0 9.0 0.00 0.00 0.00 65 1015.3
20260904033908 57 238 5.0 10.0 0.00 0.00 0.00 63 1015.2
20260904032907 57 245 8.0 12.0 0.00 0.00 0.00 61 1015.1
20260904031908 57 243 8.0 14.0 0.00 0.00 0.00 60 1015.1
20260904030910 57 256 5.0 13.0 0.00 0.00 0.00 60 1015.0
20260904025907 58 252 7.0 11.0 0.00 0.00 0.00 60 1014.9
20260904024907 58 250 7.0 12.0 0.00 0.00 0.00 59 1014.8
20260904023907 58 255 8.0 14.0 0.00 0.00 0.00 58 1014.7
20260904022907 58 258 7.0 14.0 0.00 0.00 0.00 58 1014.6
20260904021907 58 252 8.0 12.0 0.00 0.00 0.00 57 1014.7
20260904020907 58 255 6.0 11.0 0.00 0.00 0.00 57 1014.8
20260904015907 58 256 7.0 10.0 0.00 0.00 0.00 55 1014.8
20260904014907 59 266 6.0 9.0 0.00 0.00 0.00 54 1014.7
20260904013908 59 282 5.0 8.0 0.00 0.00 0.00 53 1014.5
20260904012907 59 283 4.0 7.0 0.00 0.00 0.00 52 1014.6
20260904011907 59 273 3.0 6.0 0.00 0.00 0.00 52 1014.6
20260904010907 60 263 2.0 6.0 0.00 0.00 0.00 51 1014.7
20260904005908 60 278 2.0 6.0 0.00 0.00 0.00 51 1014.7
20260904004907 61 0 0.0 11.0 0.00 0.00 0.00 48 1014.7
20260904003907 62 261 4.0 11.0 0.00 0.00 0.00 46 1014.8
20260904002907 62 267 4.0 10.0 0.00 0.00 0.00 48 1014.7
20260904001907 62 194 1.0 12.0 0.00 0.00 0.00 46 1014.7
20260904000907 63 290 6.0 13.0 0.00 0.00 0.00 44 1014.7
20260903235907 63 236 4.0 13.0 0.00 0.00 0.00 44 1014.7
20260903234909 64 249 3.0 13.0 0.00 0.00 0.00 46 1014.7
20260903233907 63 222 2.0 16.0 0.00 0.00 0.00 47 1014.7
20260903232907 63 239 2.0 13.0 0.00 0.00 0.00 47 1015.0
20260903231907 63 261 4.0 15.0 0.00 0.00 0.00 49 1015.0
20260903230907 62 226 6.0 12.0 0.00 0.00 0.00 48 1015.0
20260903225907 63 253 5.0 13.0 0.00 0.00 0.00 50 1015.0
20260903224907 61 270 5.0 12.0 0.00 0.00 0.00 51 1015.1
20260903223907 62 297 8.0 14.0 0.00 0.00 0.00 52 1015.1
20260903222907 62 274 6.0 13.0 0.00 0.00 0.00 53 1015.2
20260903221907 62 265 9.0 15.0 0.00 0.00 0.00 50 1015.2
20260903220907 62 260 9.0 15.0 0.00 0.00 0.00 50 1015.2
20260903215907 64 267 10.0 15.0 0.00 0.00 0.00 49 1015.3
20260903214907 63 277 6.0 16.0 0.00 0.00 0.00 46 1015.3
20260903213907 63 275 8.0 17.0 0.00 0.00 0.00 47 1015.3
20260903212907 63 258 8.0 18.0 0.00 0.00 0.00 51 1015.4
20260903211907 62 252 7.0 18.0 0.00 0.00 0.00 49 1015.5
20260903210907 61 256 6.0 14.0 0.00 0.00 0.00 54 1015.6
20260903205907 61 269 7.0 18.0 0.00 0.00 0.00 53 1015.6
20260903204907 61 263 8.0 16.0 0.00 0.00 0.00 58 1015.8
20260903203908 61 248 9.0 17.0 0.00 0.00 0.00 57 1015.8
20260903202907 61 252 9.0 20.0 0.00 0.00 0.00 58 1015.8
20260903201907 61 266 5.0 13.0 0.00 0.00 0.00 60 1015.9
20260903200907 62 260 8.0 16.0 0.00 0.00 0.00 56 1016.0
20260903195907 61 257 8.0 15.0 0.00 0.00 0.00 56 1016.0
20260903194907 60 243 4.0 9.0 0.00 0.00 0.00 63 1016.1
20260903193908 60 253 6.0 12.0 0.00 0.00 0.00 63 1016.1
20260903192907 59 255 5.0 13.0 0.00 0.00 0.00 63 1016.2
20260903191908 59 244 8.0 15.0 0.00 0.00 0.00 63 1016.3
20260903190908 59 232 7.0 14.0 0.00 0.00 0.00 64 1016.4
20260903185907 59 247 7.0 12.0 0.00 0.00 0.00 66 1016.4
20260903184907 59 246 9.0 14.0 0.00 0.00 0.00 67 1016.6
20260903183908 59 249 8.0 17.0 0.00 0.00 0.00 66 1016.7
20260903182909 59 264 7.0 13.0 0.00 0.00 0.00 64 1016.8
20260903181907 59 253 8.0 13.0 0.00 0.00 0.00 65 1016.8
20260903180911 59 262 6.0 11.0 0.00 0.00 0.00 65 1016.9
20260903175910 58 254 6.0 10.0 0.00 0.00 0.00 65 1016.9
20260903174907 58 267 4.0 10.0 0.00 0.00 0.00 64 1017.0
20260903173907 58 248 7.0 11.0 0.00 0.00 0.00 65 1017.0
20260903172907 57 256 3.0 9.0 0.00 0.00 0.00 65 1016.9
20260903171907 57 256 5.0 13.0 0.00 0.00 0.00 65 1017.0
20260903170908 58 266 7.0 15.0 0.00 0.00 0.00 66 1017.0
20260903165907 57 269 7.0 12.0 0.00 0.00 0.00 63 1016.9
20260903164907 57 227 4.0 10.0 0.00 0.00 0.00 62 1016.8
20260903163906 57 240 4.0 12.0 0.00 0.00 0.00 63 1016.8
20260903162907 56 244 5.0 10.0 0.00 0.00 0.00 64 1016.7
20260903161907 55 241 2.0 7.0 0.00 0.00 0.00 65 1016.7
20260903160907 55 255 3.0 9.0 0.00 0.00 0.00 68 1016.7
20260903155907 55 242 4.0 10.0 0.00 0.00 0.00 65 1016.7
20260903154907 55 260 5.0 8.0 0.00 0.00 0.00 62 1016.7
20260903153907 55 240 3.0 11.0 0.00 0.00 0.00 63 1016.7
20260903152907 55 236 5.0 11.0 0.00 0.00 0.00 60 1016.7
20260903151907 55 244 6.0 11.0 0.00 0.00 0.00 60 1016.7
20260903150907 55 255 5.0 10.0 0.00 0.00 0.00 54 1016.6
20260903145907 55 242 2.0 9.0 0.00 0.00 0.00 55 1016.6
20260903144908 56 234 2.0 4.0 0.00 0.00 0.00 48 1016.7
20260903143907 56 283 2.0 7.0 0.00 0.00 0.00 55 1016.6
20260903142907 56 302 2.0 5.0 0.00 0.00 0.00 55 1016.6
20260903141906 56 0 0.0 3.0 0.00 0.00 0.00 49 1016.6
20260903140907 56 302 1.0 5.0 0.00 0.00 0.00 52 1016.6
20260903135907 55 302 1.0 5.0 0.00 0.00 0.00 44 1016.4
20260903134907 55 286 5.0 8.0 0.00 0.00 0.00 53 1016.4
20260903133907 55 292 4.0 9.0 0.00 0.00 0.00 52 1016.4
20260903132906 55 292 4.0 7.0 0.00 0.00 0.00 52 1016.3
20260903131907 56 0 0.0 6.0 0.00 0.00 0.00 50 1016.3
20260903130907 56 273 4.0 9.0 0.00 0.00 0.00 62 1016.2
20260903125906 56 286 5.0 9.0 0.00 0.00 0.00 61 1016.0
20260903124911 56 273 4.0 10.0 0.00 0.00 0.00 63 1016.0
20260903123907 56 288 6.0 11.0 0.00 0.00 0.00 64 1016.0
20260903122907 56 304 7.0 11.0 0.00 0.00 0.00 63 1015.9
20260903121907 55 301 3.0 9.0 0.00 0.00 0.00 64 1015.9
20260903120906 55 306 5.0 10.0 0.00 0.00 0.00 67 1015.9
20260903115906 55 310 5.0 9.0 0.00 0.00 0.00 68 1015.9
20260903114907 56 310 4.0 10.0 0.00 0.00 0.00 65 1016.0
20260903113906 56 305 6.0 11.0 0.00 0.00 0.00 62 1015.9
20260903112907 56 307 6.0 11.0 0.00 0.00 0.00 60 1016.0
20260903111906 56 305 7.0 12.0 0.00 0.00 0.00 53 1015.9
20260903110907 55 304 8.0 13.0 0.00 0.00 0.00 52 1015.9
20260903105907 55 305 8.0 12.0 0.00 0.00 0.00 57 1015.8
20260903104906 55 305 9.0 14.0 0.00 0.00 0.00 59 1015.8
20260903103907 54 307 10.0 14.0 0.00 0.00 0.00 68 1015.8
20260903102908 54 303 9.0 15.0 0.00 0.00 0.00 73 1015.8
20260903101907 55 305 10.0 16.0 0.00 0.00 0.00 72 1015.9
20260903100907 55 290 11.0 19.0 0.00 0.00 0.00 72 1016.0
20260903095909 55 298 11.0 17.0 0.00 0.00 0.00 70 1016.0
20260903094906 55 301 12.0 18.0 0.00 0.00 0.00 68 1016.0
20260903093907 55 302 12.0 19.0 0.00 0.00 0.00 68 1016.1